Location: Consuma
(43.7833°N, 11.5833°E)
Time: 16:58:55
(UTC+00:00)

NOSS 2-1 (D) - Pass Details

Date: 17 February 2020
Orbit: 450 x 1753 km, 63.3° (Epoch: 05 April)

Event Time Altitude Azimuth Distance (km) Brightness Sun altitude
Exits shadow 04:16:18 27° 355° (N) 936 4.4 -21.2°
Drops below altitude 10° 04:18:31 10° 23° (NNE) 1,711 6.1 -20.8°
Sets 04:20:59 0° 32° (NNE) 2,719 7.4 -20.4°
